STARLINK-37362, 68974

Orbit data source: Space-Track

STARLINK-37362, 68974 is a payload satellite owned by SpaceX/Seattle (US) in LEO that was launched on Fri, 01 May 2026 UTC via an FALCON 9 launch vehicle from the Air Force Eastern Test Range (AFETR). Payload-class satellites include a variety of spacecraft equipped with specific instruments for various scientific and technological missions. These include communications satellites like Starlink; space stations such as the ISS; scientific satellites like the Hubble; Earth observation satellites from companies like Planet Labs, Umbra, and HawkEye 360; GPS; miniature CubeSats for education and research; and military/defense satellites.

Loading next visibility...
Identifier
68974, 2026-099Z
Orbit
LEO
Country
Flag of USUS
Related business
Manufacturer
SpaceX/Seattle
Mission
Operational spacecraft
Bus & Motor
STARLINK V2MO, Unknown motor
Mass
575 kg wet, ~530 kg dry
Launch date (UTC)
2026-05-01 (2 months ago)
Launch vehicle
FALCON 9
Launch site
Air Force Eastern Test Range (AFETR)
Object type
Payload
Rocket body
Debris
Shape & HBR
Unknown shape, 14.5 m
Radar Cross Section
Large (>1 m²)

Expand to show TLE details & history
Last TLE update: 10 hours ago

TLE from 10 hours ago
0 STARLINK-37362
1 68974U 26099Z   26171.41668980  .00045407  00000-0  13472-2 0  9998
2 68974  53.1587 146.0216 0001705  79.8453 174.1757 15.34392140  5946
Epoch: 2026-06-20T10:00Z
TLE epoch observation values (Epoch: 2026-06-20T10:00:01.998Z)
Latitude
-50.46726°
Longitude
-28.08912°
Altitude
481.321 km
Speed
7.624 km/s
True Right ascension
02h 02m 12s
True Declination
-50° 17' 29"
Sunlit
Object was in daylight at epoch
Visualization orbit readout
Latitude
Unknown
Longitude
Unknown
Altitude
Unknown
Speed
Unknown
Apparent Right ascension
Unknown
Apparent Declination
Unknown
Sunlit
N/A
Visualization observer readout
Local Sidereal Time
07:14:08
Azimuth
Unknown
Elevation
Unknown
Doppler factor
Unknown
Orbital elements
Apogee altitude
464.15 km
Perigee altitude
461.817 km
Semi-major axis
6,841.121 km
Eccentricity
0.00017
Inclination
53.1587°
RAAN
146.0216°
Arg. of periapsis
79.8453°
True anomaly
174.17768°
Mean anomaly
174.1757°
Eccentric anomaly
174.17669°
Mean motion
3.83577 °/min
Orbital period
93.85 mins
BSTAR
0.0013472
Loading maneuver chart data...
Computing Atmospheric mass density...
Loading historical data...
Loading historical data...
Loading historical data...
Loading historical data...
Loading historical data...
Loading historical data...
Loading historical data...

Documentation

Showing up to 5 results
|